Location: Campillo
(40.8621°N, 4.2488°W)
Time: 12:10:42
(UTC+00:00)

USA 306 - Pass Details

Date: 04 October 2021
Orbit: 564 x 573 km, 54.0° (Epoch: 24 September)

Event Time Altitude Azimuth Distance (km) Brightness Sun altitude
Rises 19:20:51 0° 304° (NW) 2,760 7.6 -17.2°
Reaches altitude 10° 19:23:11 10° 297° (WNW) 1,861 6.6 -17.7°
Maximum altitude 19:27:09 40° 228° (SW) 839 4.0 -18.4°
Enters shadow 19:29:54 18° 166° (SSE) 1,420 4.7 -18.9°
